Location: Unspecified
(51.6250°N, 0.8230°E)
Time: 23:19:46
(UTC+00:00)

Intercosmos 25 - Pass Details

Date: 01 February 2021
Orbit: 438 x 2877 km, 82.6° (Epoch: 25 February)

Event Time Altitude Azimuth Distance (km) Brightness Sun altitude
Rises 17:14:48 0° 242° (WSW) 5,613 11.0 -4.9°
Reaches altitude 10° 17:20:13 10° 258° (WSW) 4,122 9.5 -5.7°
Maximum altitude 17:26:32 19° 299° (WNW) 2,861 7.6 -6.6°
Drops below altitude 10° 17:31:17 10° 341° (NNW) 2,944 7.0 -7.3°
Sets 17:34:21 0° 1° (N) 3,549 7.2 -7.7°
